Location: Llangadwaladr
(53.2000°N, 4.4167°W)
Time: 18:00:39
(UTC+00:00)

Daily predictions for brighter satellites

Satellite Brightness Start Highest point End
(mag) Time Altitude Azimuth Time Altitude Azimuth Time Altitude Azimuth
Cosmos 2061 Rocket 4.1 18:05:29 10° S 18:11:49 65° E 18:18:07 10° NNE
Cosmos 2297 3.7 18:07:01 10° SSW 18:12:39 75° ESE 18:18:18 10° NE
Meteor 2-6 Rocket 4.3 18:08:55 10° NNW 18:14:33 84° W 18:20:00 10° S
STARLINK-27 4.5 18:11:00 10° SW 18:14:39 34° SSE 18:18:20 10° E
Cosmos 1812 2.9 18:11:08 10° N 18:14:56 51° ENE 18:18:43 10° SSE
STARLINK-74 4.5 18:12:38 10° SW 18:16:19 35° SSE 18:20:00 10° E
Meteor 1-10 Rocket 4.3 18:10:40 10° NNW 18:16:20 88° ENE 18:21:55 10° SSE
Cosmos 2263 Rocket 4.4 18:14:07 10° NW 18:16:49 13° N 18:19:31 10° NNE
STARLINK-39 4.4 18:14:15 10° SW 18:17:56 35° SSE 18:21:39 10° E
STARLINK-42 3.6 18:16:07 10° SW 18:19:13 44° SSE 18:22:20 10° E
STARLINK-31 4.4 18:15:55 10° SW 18:19:37 36° SSE 18:23:20 10° E
Cosmos 2369 Rocket 2.9 18:14:51 10° SSE 18:19:47 32° ESE 18:24:46 10° NE
Cosmos 2285 Rocket 4.2 18:13:35 10° NNW 18:19:51 56° ENE 18:26:08 10° SE
YAOGAN 1 2.6 18:15:53 10° SSE 18:20:09 59° ENE 18:24:26 10° N
SL-27 R/B 2.3 18:17:50 10° NNW 18:21:12 89° NNE 18:24:31 10° SSE
STARLINK-69 4.3 18:17:38 10° SW 18:21:23 39° SSE 18:25:09 10° E
Tsikada Rocket 4.1 18:16:12 10° N 18:22:36 75° ENE 18:29:01 10° SSE
STARLINK-21 4.3 18:19:10 10° SW 18:22:54 38° SSE 18:26:39 10° E
STARLINK-1010 4.3 18:21:10 10° SSW 18:23:58 27° SSE 18:26:47 10° E
Cosmos 1802 Rocket 4.1 18:17:58 10° S 18:24:18 86° E 18:30:45 10° NNE
Cosmos 1633 Rocket 3.4 18:20:30 10° SSE 18:24:34 41° E 18:28:40 10° NNE
STARLINK-45 4.2 18:20:57 10° SW 18:24:44 41° SSE 18:28:32 10° E
SKYMED 2 3.6 18:20:49 10° NNE 18:25:08 59° ESE 18:29:25 10° S
Cosmos 1833 4.4 18:20:29 10° NNW 18:26:11 56° NE 18:31:49 10° SE
STARLINK-70 4.2 18:22:31 10° SW 18:26:18 40° SSE 18:30:06 10° E
USA 234 3.5 18:19:54 10° ENE 18:26:22 66° N 18:32:51 10° W
CZ-2D R/B 3.4 18:22:35 10° SSE 18:26:23 52° ENE 18:30:12 10° N
Cosmos 1862 3.3 18:23:45 10° S 18:27:41 63° E 18:31:38 10° NNE
STARLINK-76 4.3 18:24:04 10° SW 18:27:50 40° SSE 18:31:34 10° E
STARLINK-23 4.2 18:25:43 10° SW 18:29:30 41° SSE 18:33:10 11° E
STARLINK-29 4.0 18:26:18 10° W 18:29:35 46° SSW 18:32:52 10° SE
STARLINK-32 4.2 18:27:21 10° SW 18:31:09 41° SSE 18:34:46 11° E
Cosmos 1666 Rocket 3.7 18:26:51 10° S 18:31:14 57° E 18:35:40 10° NNE
Cosmos 1238 Rocket 4.2 18:24:53 10° S 18:31:25 89° E 18:38:05 10° N
STARLINK-40 4.2 18:28:58 10° SW 18:32:46 42° SSE 18:36:20 12° E
USA 229 DEB 3.8 18:26:36 10° SSW 18:32:58 54° SE 18:39:42 10° NE
USA 229 3.8 18:26:43 10° SSW 18:33:05 54° SE 18:39:47 10° NE
Cosmos 44 3.1 18:28:45 10° NW 18:33:09 83° SW 18:37:38 10° SE
STARLINK-44 4.1 18:30:36 10° SW 18:34:25 43° SSE 18:37:56 12° E
STARLINK-37 4.1 18:32:20 10° SW 18:36:11 45° SSE 18:39:38 12° E
STARLINK-64 3.6 18:32:48 10° SW 18:36:18 51° SSE 18:39:23 13° E
STARLINK-1029 4.2 18:34:14 10° SSW 18:36:56 26° SSE 18:39:10 13° E
STARLINK-75 3.4 18:34:23 10° WSW 18:37:43 55° SSE 18:40:35 13° E
STARLINK-36 4.1 18:33:53 10° SW 18:37:44 44° SSE 18:41:07 13° E
Cosmos 2016 Rocket 4.0 18:31:47 10° S 18:37:54 89° W 18:44:07 10° N
STARLINK-1016 4.0 18:34:57 10° SW 18:37:56 33° SSE 18:40:22 14° E
STARLINK-1008 4.0 18:34:58 10° SW 18:37:58 33° SSE 18:40:27 13° E
STARLINK-68 4.0 18:35:40 10° SW 18:39:33 48° SSE 18:42:53 13° E
STARLINK-22 3.5 18:36:56 10° SW 18:40:12 50° SSE 18:42:54 14° E
NOSS 3-1 (A) 3.9 18:35:07 10° S 18:40:16 39° ESE 18:46:12 10° NE
Cosmos 1346 Rocket 3.8 18:37:24 10° SSE 18:40:42 25° E 18:44:00 10° NE
FALCON 9 DEB 4.4 18:37:40 10° W 18:40:54 37° SSW 18:44:07 10° SE
STARLINK-1025 3.9 18:37:59 10° SW 18:41:00 34° SSE 18:43:21 14° E
STARLINK-63 4.0 18:37:14 10° SW 18:41:06 47° SSE 18:44:23 14° E
STARLINK-41 3.4 18:38:22 10° WSW 18:41:40 53° SSE 18:44:18 15° E
STARLINK-52 4.1 18:38:30 10° W 18:41:44 43° SSW 18:44:58 10° SE
USA 116 4.1 18:38:10 10° NNE 18:41:56 47° E 18:46:09 10° S
STARLINK-61 3.6 18:38:29 10° WSW 18:42:20 62° SSE 18:45:35 14° E
STARLINK-1017 3.9 18:39:30 10° SW 18:42:31 35° SSE 18:44:49 15° E
STARLINK-35 4.0 18:38:47 10° SW 18:42:40 47° SSE 18:45:52 14° E
STARLINK-48 3.4 18:39:17 10° W 18:43:12 84° S 18:46:26 15° E
Ariane Rocket 3.3 18:38:59 10° SE 18:43:49 44° ENE 18:48:40 10° N
STARLINK-26 3.1 18:40:40 10° WSW 18:44:09 82° S 18:46:54 15° E
STARLINK-51 4.0 18:40:27 10° SW 18:44:20 48° SSE 18:47:29 15° E
STARLINK-30 4.0 18:42:06 10° SW 18:45:59 49° SSE 18:49:04 15° E
ARGOS 3.9 18:41:38 10° ESE 18:46:24 32° ENE 18:51:11 10° N
CENTAUR R/B 3.8 18:40:30 10° WNW 18:47:08 39° N 18:54:06 12° ENE
STARLINK-1048 3.8 18:44:05 10° SW 18:47:09 37° SSE 18:49:18 17° E
STARLINK 1040 3.4 18:44:32 10° SW 18:47:09 37° SSE 18:48:51 18° E
STARLINK-72 3.9 18:43:43 10° SW 18:47:36 50° SSE 18:50:38 16° E
CSL-04 Rocket 3.8 18:42:17 10° SSE 18:47:50 89° WSW 18:53:21 10° NNW
STARLINK-1049 3.8 18:45:37 10° SW 18:48:42 37° SSE 18:50:48 17° E
STARLINK-50 3.9 18:45:22 10° SW 18:49:15 50° SSE 18:52:14 16° E
STARLINK-1051 3.7 18:47:14 10° SW 18:50:19 38° SSE 18:52:22 18° E
STARLINK-1028 3.7 18:47:13 10° SW 18:50:19 38° SSE 18:52:22 18° E
STARLINK-59 3.9 18:47:04 10° SW 18:51:00 52° SSE 18:53:56 17° E
STARLINK-1021 3.7 18:48:50 10° SW 18:51:56 39° SSE 18:53:57 19° E
STARLINK-56 3.9 18:48:38 10° SW 18:52:33 52° SSE 18:55:24 17° E
STARLINK-1014 4.0 18:49:47 10° SW 18:53:00 36° SSE 18:55:03 18° E
Cosmos 2233 Rocket 3.9 18:47:07 10° S 18:53:12 67° E 18:59:22 10° NNE
STARLINK-1019 3.7 18:50:26 10° SW 18:53:33 40° SSE 18:55:31 19° E
Cosmos 990 Rocket 4.4 18:48:45 10° NNW 18:53:38 41° NE 18:58:20 11° ESE
STARLINK-73 3.8 18:50:17 10° SW 18:54:12 53° SSE 18:57:00 18° E
STARLINK-1012 3.6 18:52:08 10° SW 18:55:16 41° SSE 18:57:09 20° E
STARLINK-38 3.8 18:51:57 10° SW 18:55:53 54° SSE 18:58:37 18° E
H-2A R/B 2.6 18:52:11 10° SE 18:57:13 42° ENE 19:02:21 10° N
STARLINK-65 3.8 18:53:34 10° SW 18:57:30 55° SSE 19:00:11 19° E
ATLAS 3B R/B 3.7 18:52:07 10° WNW 18:58:03 33° N 19:03:34 12° ENE
STARLINK-1026 3.6 18:55:24 10° SW 18:58:32 42° SSE 19:00:20 21° E
STARLINK-53 3.8 18:55:18 10° WSW 18:59:14 57° SSE 19:01:52 20° E
Cosmos 2297 Rocket 3.5 18:54:48 10° NNW 18:59:17 23° NNE 19:02:16 16° ENE
STARLINK-1013 3.6 18:57:01 10° SW 19:00:10 43° SSE 19:01:55 22° E
Cosmos 1937 Rocket 4.1 18:56:41 10° NNW 19:01:36 37° NE 19:05:15 16° ESE
STARLINK-1009 3.5 18:58:39 10° SW 19:01:50 44° SSE 19:03:31 23° E
Sich 1 3.8 18:58:07 10° SSW 19:02:19 55° WNW 19:06:32 10° N
STARLINK-43 3.3 18:58:49 10° W 19:02:32 81° S 19:04:52 21° ESE
MOS 1 4.5 18:57:29 10° SE 19:02:55 50° ENE 19:08:23 10° N
STARLINK-1015 3.5 19:00:21 10° SW 19:03:32 45° SSE 19:05:09 24° E
NOSS 2-3 (C) 4.3 19:01:05 10° S 19:05:11 38° ESE 19:09:00 15° ENE
Okean 1 3.9 19:01:46 10° N 19:05:29 34° ENE 19:08:21 15° SE
Lacrosse 5 rocket 2.1 19:01:49 10° WNW 19:06:13 52° N 19:09:19 19° ENE
Meteor 1-27 Rocket 4.3 19:02:09 10° NNW 19:07:37 62° W 19:13:08 10° S
Cosmos 2278 Rocket 4.1 19:03:03 10° W 19:07:46 26° NW 19:12:30 10° NNE
Lacrosse 4 Rocket 2.6 19:03:45 10° WSW 19:07:49 42° NW 19:12:01 10° NNE
Cosmos 2242 Rocket 3.5 19:05:19 10° N 19:09:52 76° ENE 19:14:26 10° SSE
Cosmos 1470 Rocket 3.5 19:07:10 10° S 19:11:29 67° E 19:15:53 10° NNE
COSMO-SKYMED 1 3.5 19:08:57 10° N 19:13:11 52° WNW 19:17:24 10° SW
Cosmos 1862 Rocket 4.1 19:09:57 10° NNW 19:14:14 62° W 19:18:31 10° S
Resurs 01 Rocket 3.0 19:15:30 20° ENE 19:15:56 21° ENE 19:19:13 10° N
SL-08 RB Rocket 4.3 19:14:22 21° ESE 19:16:42 34° ENE 19:20:45 10° N
Cosmos 1943 Rocket 2.1 19:11:41 10° SSW 19:17:16 90° WNW 19:22:52 10° NNE
Cosmos 2227 Rocket 3.4 19:13:12 10° NNW 19:17:52 25° NE 19:20:07 20° ENE
STARLINK-80 3.3 19:14:26 10° W 19:18:16 88° S 19:20:03 30° E
Cosmos 1939 Rocket 4.1 19:14:42 10° S 19:18:42 47° W 19:22:44 10° NNW
Genesis I 4.2 19:17:05 10° NW 19:20:36 31° NNE 19:21:45 26° ENE
STARLINK-1031 4.3 19:17:39 10° SW 19:21:20 35° SSE 19:22:31 29° ESE
USA 238 DEB 4.2 19:15:03 10° NW 19:21:52 49° NNE 19:26:20 23° E
CZ-4 R/B 3.5 19:18:12 10° SSW 19:21:56 30° W 19:25:39 10° NNW
USA 238 4.2 19:15:09 10° NW 19:21:58 49° NNE 19:26:25 23° E
Cosmos 1340 2.5 19:20:38 10° S 19:24:24 85° E 19:28:11 10° NNE
STARLINK-1037 4.4 19:21:20 10° SSW 19:25:05 34° SSE 19:26:07 30° ESE
CZ-2C R/B 3.3 19:20:56 10° SE 19:26:37 59° ENE 19:32:11 10° N
Cosmos 405 2.9 19:23:50 10° N 19:27:22 63° ENE 19:29:30 22° SSE
STARLINK-24 3.5 19:25:17 10° WSW 19:29:18 71° SSE 19:30:47 36° E
STARLINK-1059 4.3 19:26:17 10° SW 19:30:05 36° SSE 19:30:58 32° ESE
STARLINK-1023 3.0 19:27:27 10° WSW 19:30:35 60° SSE 19:31:04 51° ESE
Cosmos 1703 Rocket 3.5 19:26:38 10° N 19:31:07 79° ENE 19:35:36 10° SSE
Okean 1-7 2.9 19:27:32 10° N 19:31:51 69° ENE 19:36:10 10° SSE
Cosmos 921 Rocket 3.8 19:27:44 10° SW 19:32:11 57° WNW 19:36:40 10° NNE
NOSS 3-1 (C) 3.5 19:27:15 10° SW 19:32:59 83° NW 19:39:31 11° NE
COSMOS 2487 2.5 19:29:33 10° NNW 19:33:01 76° WSW 19:35:18 20° SSE
FREGAT/IRIS 2.1 19:33:05 71° ESE 19:33:14 75° ENE 19:35:59 10° N
STARLINK-58 3.1 19:29:51 10° WSW 19:33:25 77° SSE 19:34:19 47° E
STARLINK-1057 4.2 19:31:12 10° SW 19:35:03 38° SSE 19:35:44 35° SE
STARLINK-62 3.1 19:31:32 10° WSW 19:35:05 78° S 19:35:55 50° E
Meteor 1-19 Rocket 4.2 19:29:21 10° N 19:35:13 63° ENE 19:40:38 11° SSE
Cosmos 1891 Rocket 4.5 19:29:24 10° S 19:35:27 58° E 19:41:40 10° NNE
STARLINK-34 3.1 19:33:10 10° WSW 19:36:43 79° S 19:37:30 52° E
Cosmos 44 Rocket 3.1 19:33:30 10° NW 19:38:15 79° NE 19:40:28 32° SE
STARLINK-81 3.5 19:34:36 10° WSW 19:38:37 73° SSE 19:39:45 45° E
Meteor 2-4 Rocket 4.1 19:33:29 10° N 19:39:10 47° ENE 19:42:12 26° SE
SPOT 3 Rocket 3.6 19:36:24 21° SE 19:39:42 56° ENE 19:44:49 10° N
STARLINK-1034 4.1 19:36:06 10° SW 19:39:59 40° SSE 19:40:31 38° SE
STARLINK-54 3.5 19:36:27 10° WSW 19:40:29 76° SSE 19:41:32 47° E
Cosmos 2219 3.8 19:35:25 10° NNW 19:40:51 41° NE 19:42:42 32° E
Cosmos 468 Rocket 4.4 19:36:51 10° S 19:41:42 38° ESE 19:44:32 22° NE
STARLINK-77 3.5 19:37:55 10° WSW 19:41:57 75° SSE 19:42:57 48° E
STARLINK-33 2.8 19:39:25 10° W 19:42:43 87° S 19:43:00 72° E
SJ 16-02 1.2 19:38:26 10° NNW 19:42:54 80° ENE 19:45:09 28° SSE
STARLINK-25 3.5 19:39:34 10° WSW 19:43:36 76° SSE 19:44:32 50° E
Cosmos 1869 Rocket 3.8 19:39:40 10° SSE 19:43:50 43° E 19:47:59 10° NNE
STARLINK-66 2.8 19:41:27 10° W 19:44:44 87° S 19:44:57 77° E
STARLINK-55 2.8 19:41:38 10° W 19:44:55 87° S 19:45:07 77° E
STARLINK-1068 4.0 19:41:01 10° SW 19:44:56 42° SSE 19:45:17 41° SE
Aureole 2 Rocket 3.5 19:42:32 10° SW 19:44:59 32° WNW 19:46:40 17° N
ADEOS Rocket 3.7 19:37:23 10° NNE 19:45:10 83° WNW 19:52:54 10° SSW
USA 186 2.7 19:46:29 29° NNW 19:46:29 29° NNW 19:47:57 10° NNW
STARLINK-71 3.4 19:41:26 10° WSW 19:45:28 78° SSE 19:46:21 53° E
Meteor 1-25 Rocket 4.1 19:40:26 10° S 19:46:06 74° E 19:51:44 10° NNE
STARLINK-1007 2.9 19:43:12 10° WSW 19:46:21 69° S 19:46:21 69° S
STARLINK-28 2.8 19:43:17 10° W 19:46:35 88° SSE 19:46:43 81° E
STARLINK-79 3.4 19:42:51 10° WSW 19:46:53 77° SSE 19:47:42 54° E
Cosmos 1898 Rocket 3.4 19:43:14 10° NNW 19:48:27 87° WSW 19:52:07 20° SSE
STARLINK-78 3.4 19:44:33 10° WSW 19:48:35 78° SSE 19:49:20 57° E
Cosmos 1656 Rocket 3.5 19:44:40 10° SSW 19:50:09 68° ESE 19:55:45 10° NE
STARLINK-57 3.4 19:46:18 10° WSW 19:50:19 79° S 19:51:01 59° E
STARLINK-49 3.4 19:47:49 10° WSW 19:51:51 79° SSE 19:52:28 61° E
STARLINK-27 3.4 19:49:29 10° WSW 19:53:30 80° S 19:54:04 64° E
SJ-6B 2.6 19:52:30 40° SSE 19:53:48 89° ENE 19:57:37 10° NNW
STARLINK-1060 3.9 19:50:53 10° SW 19:54:51 47° SSE 19:54:51 47° SSE
STARLINK-74 3.4 19:51:08 10° WSW 19:55:10 80° S 19:55:39 67° ESE
STARLINK-42 3.0 19:52:04 10° W 19:55:05 76° WSW 19:55:05 76° WSW
STARLINK-39 3.4 19:52:47 10° WSW 19:56:50 81° SSE 19:57:15 69° ESE
Nadezhda 4 Rocket 3.9 19:51:20 10° N 19:57:39 78° ENE 20:03:47 11° SSE
Cosmos 2150 Rocket 4.5 19:53:01 10° NNW 19:58:09 42° NE 19:58:50 40° ENE
STARLINK-31 3.4 19:54:28 10° WSW 19:58:30 81° S 19:58:51 72° ESE
STARLINK-1030 3.9 19:55:51 10° SW 19:59:40 49° SSE 19:59:40 49° SSE
STARLINK-1010 3.4 19:56:39 10° WSW 19:59:22 57° SW 19:59:22 57° SW
STARLINK-69 3.3 19:56:16 10° WSW 20:00:18 83° S 20:00:36 75° ESE
Cosmos 1464 Rocket 3.9 19:54:25 10° S 20:00:48 83° E 20:07:14 10° NNE
STARLINK-21 3.3 19:57:46 10° WSW 20:01:49 83° SSE 20:02:02 77° ESE
Meteor 1-13 Rocket 4.5 19:57:16 10° N 20:03:03 51° ENE 20:04:16 44° ESE
Cosmos 2263 Rocket 4.1 19:59:51 10° NNW 20:03:17 16° NNE 20:04:48 15° NE
Cosmos 2369 Rocket 2.7 19:57:56 10° SW 20:03:32 59° NW 20:09:12 10° NNE
STARLINK-45 3.3 19:59:38 10° W 20:03:40 85° S 20:03:50 81° ESE
Cosmos 2026 Rocket 4.2 19:58:21 10° N 20:04:20 45° ENE 20:05:17 42° E
STARLINK-1020 3.9 20:00:45 10° SW 20:04:25 50° S 20:04:25 50° S
STARLINK-70 3.4 20:01:12 10° W 20:05:14 84° S 20:05:21 83° SE
STARLINK-1047 3.9 20:01:39 10° SW 20:05:23 52° S 20:05:23 52° S
NOSS 2-3 (E) 3.8 20:01:49 10° SW 20:06:18 87° NW 20:08:39 34° NE
STARLINK-76 3.4 20:02:44 10° W 20:06:47 84° SSE 20:06:49 84° SSE
STARLINK-23 3.4 20:04:24 10° W 20:08:25 84° S 20:08:25 84° S
Cosmos 1763 Rocket 4.0 20:03:44 10° S 20:07:25 40° SSE 20:07:25 40° SSE
USA 234 3.2 20:06:31 39° E 20:09:10 75° NNE 20:15:43 10° WNW
STARLINK-1052 4.0 20:05:44 10° SW 20:09:14 50° S 20:09:14 50° S
STARLINK-32 3.4 20:06:03 10° W 20:10:01 84° SSW 20:10:01 84° SSW
BREEZE-M DEB (TANK) 4.4 20:08:41 10° WSW 20:10:17 28° SW 20:10:17 28° SW
Cosmos 2221 Rocket 3.4 20:07:01 10° N 20:11:33 73° ENE 20:11:44 72° E
STARLINK-40 3.5 20:07:41 10° W 20:11:34 81° SW 20:11:34 81° SW
STARLINK-1029 4.3 20:09:27 10° WSW 20:11:29 36° WSW 20:11:29 36° WSW
MetOp-A 4.0 20:11:17 39° SSE 20:13:20 81° ENE 20:18:44 10° NNW
STARLINK-44 3.5 20:09:21 10° W 20:13:10 79° WSW 20:13:10 79° WSW
STARLINK-64 3.7 20:10:04 10° W 20:13:05 60° W 20:13:05 60° W
STARLINK-1016 4.2 20:10:44 10° WSW 20:12:59 40° WSW 20:12:59 40° WSW
STARLINK-1008 4.1 20:10:47 10° WSW 20:13:06 42° WSW 20:13:06 42° WSW
STARLINK-75 3.9 20:10:56 10° W 20:13:33 50° W 20:13:33 50° W
CZ-2C R/B 4.3 20:09:26 10° NNE 20:11:10 19° NE 20:11:10 19° NE
NOSS 3-2 (A) 4.0 20:07:42 10° NW 20:14:49 68° NE 20:17:38 42° ESE
Cosmos 1125 Rocket 4.3 20:10:12 10° NNW 20:14:49 36° NE 20:14:49 36° NE
STARLINK-37 3.6 20:11:07 10° W 20:14:53 76° WSW 20:14:53 76° WSW
NOSS 3-2 (C) 4.1 20:08:52 10° NW 20:15:50 57° NNE 20:18:24 41° E
STARLINK-36 3.6 20:12:40 10° W 20:16:21 74° WSW 20:16:21 74° WSW
STARLINK-22 4.1 20:13:20 10° W 20:15:48 45° W 20:15:48 45° W
Cosmos 1346 Rocket 4.3 20:13:14 10° SW 20:16:56 36° WNW 20:20:38 10° N
STARLINK-1025 4.3 20:13:52 10° W 20:16:01 38° WSW 20:16:01 38° WSW
Timation 2 Rocket 4.4 20:10:20 10° NW 20:17:10 68° WSW 20:21:36 23° SSE
STARLINK-41 4.2 20:14:50 10° W 20:17:12 43° W 20:17:12 43° W
STARLINK-68 3.7 20:14:31 10° W 20:18:08 71° WSW 20:18:08 71° WSW
STARLINK-1017 4.4 20:15:23 10° W 20:17:28 36° WSW 20:17:28 36° WSW
STARLINK-1033 4.2 20:15:37 10° WSW 20:18:48 46° SSW 20:18:48 46° SSW
STARLINK-63 3.7 20:16:03 10° W 20:19:37 68° W 20:19:37 68° W
Terra 4.0 20:22:36 13° NNE 20:22:36 13° NNE 20:23:33 10° NNE
Cosmos 2034 Rocket 3.8 20:14:31 10° S 20:20:41 84° E 20:26:53 10° NNE
STARLINK-1035 4.1 20:16:37 10° WSW 20:20:06 53° SSW 20:20:06 53° SSW
STARLINK-61 3.8 20:17:08 10° W 20:20:28 63° W 20:20:28 63° W
STARLINK-26 4.2 20:17:44 10° W 20:20:12 43° W 20:20:12 43° W
NOSS 2-3 (D) 3.9 20:16:49 10° SW 20:21:20 77° NW 20:22:59 43° NE
STARLINK-35 3.8 20:17:37 10° W 20:21:07 66° W 20:21:07 66° W
STARLINK-48 3.9 20:17:55 10° W 20:21:12 59° W 20:21:12 59° W
STARLINK-51 3.9 20:19:17 10° W 20:22:43 63° W 20:22:43 63° W
USA 229 DEB 4.2 20:17:26 10° WSW 20:24:00 56° NNW 20:29:06 19° NE
USA 229 4.2 20:17:32 10° WSW 20:24:06 57° NNW 20:29:10 19° NE
STARLINK-30 3.9 20:20:57 10° W 20:24:19 61° W 20:24:19 61° W
BREEZE-M DEB (TANK) 3.8 20:03:52 10° W 20:26:12 70° S 20:27:47 51° SE
ARGOS 3.8 20:21:10 10° S 20:26:28 53° W 20:31:49 10° NNW
STARLINK-72 4.0 20:22:34 10° W 20:25:53 58° W 20:25:53 58° W
STARLINK-50 4.1 20:24:14 10° W 20:27:29 56° W 20:27:29 56° W
STARLINK-59 4.2 20:26:00 10° W 20:29:10 54° W 20:29:10 54° W
NOSS 3-1 (A) 3.8 20:25:04 10° WSW 20:30:51 64° NW 20:35:03 24° NE
STARLINK-1027 4.4 20:27:13 10° WSW 20:30:21 47° SW 20:30:21 47° SW
STARLINK-56 4.2 20:27:32 10° W 20:30:39 52° W 20:30:39 52° W
STARLINK-73 4.3 20:29:13 10° W 20:32:15 50° W 20:32:15 50° W
STARLINK-38 4.4 20:30:53 10° W 20:33:52 48° W 20:33:52 48° W
Resurs 1-3 3.8 20:36:19 68° W 20:36:19 68° W 20:40:35 10° NNW
Okean 3 4.0 20:32:05 10° NNW 20:35:29 54° NNW 20:35:29 54° NNW
STARLINK-65 4.5 20:32:31 10° W 20:35:26 46° W 20:35:26 46° W
H-2A R/B 3.4 20:31:39 10° SSW 20:36:41 40° W 20:41:49 10° NNW
CENTAUR R/B 3.2 20:31:45 10° NW 20:39:16 62° NNE 20:41:17 49° E
Spot 2 Rocket 4.1 20:40:59 46° NNE 20:40:59 46° NNE 20:44:49 10° N
Cosmos 1092 Rocket 4.0 20:34:53 10° NNW 20:41:16 83° W 20:43:31 43° S
Lacrosse 5 4.3 20:37:42 10° SSW 20:37:46 10° SSW 20:37:46 10° SSW
Cosmos 1428 Rocket 4.3 20:36:36 10° N 20:42:43 72° ENE 20:42:48 72° E
Cosmos 1937 Rocket 4.4 20:38:41 10° NW 20:43:42 46° WSW 20:45:29 33° SSW
Cosmos 2297 Rocket 2.1 20:38:37 10° NNW 20:44:06 71° NE 20:44:06 71° NE
Orbus 7S? 4.4 20:40:21 10° W 20:44:39 44° NW 20:44:39 44° NW
Lacrosse 5 rocket 2.2 20:41:16 10° WNW 20:44:58 55° NW 20:44:58 55° NW
CZ-2C R/B 4.4 20:42:10 10° NNE 20:53:18 - SSW 20:45:33 47° N
Lacrosse 4 Rocket 4.1 20:45:00 10° WNW 20:47:39 16° NNW 20:49:35 12° N
Cosmos 1634 Rocket 4.3 20:49:38 52° NE 20:49:38 52° NE 20:54:33 10° NNE
ATLAS 3B R/B 3.0 20:43:42 10° NW 20:50:10 49° NNE 20:50:49 47° NE
Resurs 01 Rocket 2.4 20:53:04 49° NW 20:53:04 49° NW 20:56:28 10° NNW
Cosmos 2195 Rocket 4.5 20:51:17 10° NNW 20:57:25 75° W 20:58:26 62° SSW
Cosmos 1943 Rocket 4.1 20:57:09 10° W 21:01:46 26° NW 21:06:22 10° NNE
Cosmos 2227 Rocket 2.4 20:57:04 10° NNW 21:01:58 67° NNW 21:01:58 67° NNW
Cosmos 2082 4.2 21:00:03 10° NNW 21:04:34 51° N 21:04:34 51° N
USA 238 DEB 3.8 21:06:12 10° NW 21:13:19 74° SW 21:13:47 71° SSW
USA 238 3.8 21:06:18 10° NW 21:13:25 74° SW 21:13:52 72° SSW
SJ 16-02 4.0 21:18:20 10° WNW 21:20:52 15° W 21:22:12 13° WSW
Cosmos 2219 3.9 21:19:38 10° NW 21:24:39 49° W 21:24:39 49° W
Cosmos 2369 Rocket 4.5 21:44:38 10° WNW 21:48:48 20° NNW 21:53:00 10° NNE
Cosmos 2263 Rocket 3.9 21:43:35 10° NNW 21:46:30 27° N 21:46:30 27° N
USA 234 3.9 21:53:52 49° W 21:53:52 49° W 21:58:51 10° WNW
CZ-2C R/B 4.3 21:49:41 10° N 21:52:42 30° NNW 21:52:42 30° NNW
Terra 4.3 22:01:29 16° NNW 22:01:29 16° NNW 22:02:30 10° NNW
NOSS 3-2 (C) 4.4 21:59:51 10° NW 22:05:51 55° W 22:05:51 55° W
Cosmos 2297 Rocket 4.3 22:23:21 10° NW 22:25:55 21° WNW 22:25:55 21° WNW
CENTAUR R/B 3.7 22:22:32 10° NW 22:28:29 50° W 22:28:29 50° W
ATLAS 3B R/B 4.0 22:34:32 10° NW 22:38:04 34° WNW 22:38:04 34° WNW
